Date,TemperatureHighF,TemperatureAvgF,TemperatureLowF,DewpointHighF,DewpointAvgF,DewpointLowF,HumidityHigh,HumidityAvg,HumidityLow,PressureMaxIn,PressureMinIn,WindSpeedMaxMPH,WindSpeedAvgMPH,GustSpeedMaxMPH,PrecipitationSumIn
2014-5-9,71.4,65.4,61.5,60.5,58.9,58.0,92,80,68,29.88,29.81,7,3,14,0.01
2014-5-10,75.8,65.8,55.3,63.4,55.8,36.8,96,72,39,29.83,29.70,11,4,15,0.34
2014-5-11,66.5,56.1,49.8,46.8,44.2,41.5,84,66,41,30.01,29.83,6,1,6,0.00
2014-5-12,81.8,69.7,47.9,60.0,56.3,44.6,89,64,41,30.08,30.00,4,0,2,0.00
2014-5-13,71.8,65.8,57.3,58.0,51.2,46.0,91,60,52,30.16,30.02,15,4,2,0.51
2014-5-14,78.7,67.1,56.2,67.0,59.4,52.0,93,77,64,30.16,30.06,13,2,0,0.28
2014-5-15,79.9,71.0,61.3,65.0,61.6,59.0,93,74,51,30.11,29.94,15,4,0,0.00
2014-5-16,70.2,56.8,44.4,63.0,53.5,44.0,98,90,73,29.97,29.78,12,2,0,2.28
2014-5-17,55.2,46.1,37.9,44.0,40.9,37.0,98,84,59,30.16,29.91,12,2,0,0.00
2014-5-18,58.3,46.2,34.6,44.0,37.1,30.0,98,74,40,30.27,30.16,10,2,0,0.00
2014-5-19,65.2,50.7,34.3,48.0,40.4,33.0,96,71,44,30.22,30.11,13,3,0,0.00
2014-5-20,70.3,56.4,41.0,52.0,44.7,40.0,98,69,38,30.16,30.00,12,1,0,0.00
2014-5-21,72.3,60.1,44.0,58.0,49.9,41.0,91,71,43,29.99,29.81,14,1,0,0.00
2014-5-22,75.3,62.8,53.6,63.0,57.3,50.0,95,84,45,29.87,29.73,12,1,0,0.08
2014-5-23,54.3,52.2,50.8,53.0,51.2,50.0,98,96,92,30.00,29.83,10,2,0,0.30
2014-5-24,66.1,54.7,47.4,59.0,52.8,47.0,99,93,73,30.10,29.98,14,2,0,0.29
2014-5-25,73.2,59.9,46.8,58.0,51.4,46.0,100,77,44,30.10,30.02,10,2,0,0.00
2014-5-26,79.5,67.3,56.7,60.0,55.5,51.0,90,68,44,30.02,29.86,17,3,0,0.00
2014-5-27,80.5,70.6,58.3,68.0,61.3,54.0,89,73,60,29.88,29.75,10,2,0,0.00
2014-5-28,69.3,59.5,52.1,65.0,56.7,49.0,98,90,79,30.17,29.77,7,1,0,0.00
2014-5-29,66.0,56.9,49.0,57.0,49.7,45.0,92,78,57,30.20,30.09,6,1,0,0.00
2014-5-30,71.7,58.5,48.8,59.0,52.5,48.0,97,82,54,30.14,30.03,13,1,0,0.02
2014-5-31,72.2,58.9,43.8,53.0,47.8,43.0,98,70,39,30.27,30.13,6,0,0,0.00
2014-6-1,76.6,64.1,51.6,56.0,50.8,46.0,85,65,39,30.33,30.16,9,1,0,0.00
2014-6-2,84.6,71.8,58.9,65.0,58.1,51.0,87,63,43,30.15,29.95,9,2,0,0.00
2014-6-3,78.5,71.9,65.0,70.0,66.9,63.0,94,84,72,29.96,29.75,8,1,0,0.04
2014-6-4,70.6,61.5,49.6,64.0,53.6,47.0,94,77,56,29.89,29.76,10,2,0,0.00
2014-6-5,67.5,57.6,51.4,56.0,51.5,49.0,96,81,59,29.83,29.71,12,2,0,0.02
2014-6-6,67.6,58.5,51.5,57.0,53.1,50.0,97,83,64,29.99,29.83,12,3,0,0.00
2014-6-7,78.0,62.9,47.6,62.0,52.9,47.0,99,73,45,30.03,29.93,9,1,0,0.00
2014-6-8,82.3,67.5,49.5,65.0,54.9,48.0,96,68,37,29.97,29.82,5,1,0,0.00
2014-6-9,70.3,63.7,60.3,64.0,61.4,59.0,98,92,67,29.96,29.86,7,1,0,0.28
2014-6-10,79.0,68.2,61.2,68.0,63.6,60.0,97,85,62,30.00,29.90,5,1,0,0.00
2014-6-11,67.2,60.9,58.1,62.0,59.1,57.0,97,94,79,30.06,29.98,16,4,0,0.38
2014-6-12,66.4,61.3,56.8,65.0,60.3,56.0,98,97,93,30.02,29.89,9,2,0,0.26
2014-6-13,72.1,65.8,62.2,70.0,65.0,61.0,100,97,92,29.89,29.69,7,1,0,1.65
2014-6-14,62.2,55.0,51.0,61.0,52.1,48.0,97,90,78,30.08,29.80,12,3,0,0.01
2014-6-15,69.7,59.8,52.8,59.0,54.8,51.0,96,84,66,30.17,30.06,7,2,0,0.00
2014-6-16,82.5,66.3,49.2,68.0,58.6,49.0,99,79,41,30.14,29.98,9,0,0,0.11
2014-6-17,84.4,73.3,61.6,72.0,65.2,60.0,99,78,48,30.07,29.73,10,1,0,0.50
2014-6-18,69.5,65.2,61.2,68.0,63.5,60.0,99,94,84,30.03,29.76,12,3,0,0.09
2014-6-19,76.3,65.3,52.0,64.0,55.4,45.0,99,74,35,30.09,29.99,5,0,0,0.00
2014-6-20,72.0,59.6,46.9,54.0,49.0,45.0,95,70,42,30.09,29.97,15,1,0,0.00
2014-6-21,72.6,59.2,44.6,56.0,50.3,44.0,97,75,49,30.02,29.92,5,0,0,0.00
2014-6-22,76.0,62.4,47.7,57.0,52.7,47.0,98,74,44,30.00,29.94,6,0,0,0.00
2014-6-23,80.5,67.5,49.8,64.0,57.9,49.0,97,74,48,30.07,29.99,12,1,0,0.00
2014-6-24,80.0,72.2,67.2,69.0,64.5,60.0,92,77,69,30.02,29.89,13,3,0,0.06
2014-6-25,73.9,69.4,66.3,71.0,67.8,66.0,99,94,87,29.92,29.84,7,1,0,1.35
2014-6-26,80.3,69.8,60.4,69.0,64.9,59.0,100,86,58,30.03,29.84,5,0,0,0.01
2014-6-27,82.2,68.0,56.3,68.0,59.2,52.0,99,78,36,30.20,30.03,4,0,0,0.00
2014-6-28,82.5,70.0,54.2,65.0,59.7,53.0,98,72,44,30.27,30.18,6,0,0,0.00
2014-6-29,85.5,75.1,60.0,69.0,63.8,59.0,97,69,50,30.21,30.03,7,1,0,0.00
2014-6-30,85.7,75.3,65.4,74.0,68.0,62.0,94,78,62,30.03,29.87,5,1,0,0.20
2014-7-1,88.5,77.5,70.0,74.0,70.3,66.0,92,79,59,29.87,29.70,14,2,0,0.12
2014-7-2,84.0,77.2,67.4,75.0,71.8,66.0,96,83,65,29.95,29.73,8,1,0,0.77
2014-7-3,82.9,69.4,62.2,74.0,66.6,62.0,99,91,70,29.98,29.88,5,0,0,0.45
2014-7-4,68.1,62.9,56.8,64.0,59.2,54.0,98,88,74,30.10,29.96,12,2,0,0.09
2014-7-5,74.8,64.1,55.1,62.0,55.1,50.0,96,75,47,30.15,30.06,14,4,0,0.00
2014-7-6,79.4,68.0,52.7,61.0,55.4,49.0,94,66,46,30.05,29.84,9,2,0,0.00
2014-7-7,80.1,69.6,63.7,71.0,63.6,53.0,95,82,64,29.84,29.66,10,1,0,0.70
2014-7-8,83.4,75.2,67.2,72.0,69.0,63.0,92,82,65,29.75,29.52,15,2,0,0.06
2014-7-9,75.7,67.7,57.8,68.0,62.4,54.0,95,83,69,29.99,29.64,8,2,0,0.01
2014-7-10,72.5,62.8,51.5,59.0,54.4,49.0,94,75,52,30.21,29.99,8,1,0,0.00
2014-7-11,77.0,62.5,47.6,59.0,53.5,47.0,98,76,45,30.26,30.19,5,0,0,0.00
2014-7-12,84.5,71.3,55.8,70.0,63.2,54.0,95,77,49,30.21,30.03,8,1,0,0.00
2014-7-13,79.6,72.3,67.5,71.0,68.6,65.0,98,88,72,30.03,29.77,11,2,0,0.29
2014-7-14,82.6,72.8,67.3,73.0,68.7,66.0,97,87,64,29.88,29.81,4,0,0,0.00
2014-7-15,77.1,71.2,64.4,70.0,67.1,58.0,97,87,73,29.80,29.70,6,1,0,0.01
2014-7-16,72.1,64.2,55.3,62.0,57.9,54.0,96,81,64,29.93,29.78,12,1,9,0.00
2014-7-17,69.9,60.5,52.6,61.0,56.0,52.0,98,86,64,30.12,29.93,10,1,0,0.00
2014-7-18,75.8,62.8,50.0,61.0,55.7,49.0,99,80,51,30.25,30.12,5,1,0,0.00
2014-7-19,77.6,66.1,54.7,66.0,59.1,54.0,98,80,48,30.25,30.14,7,1,0,0.00
2014-7-20,76.4,68.6,60.5,65.0,60.4,57.0,91,75,63,30.16,30.09,5,0,0,0.00
2014-7-21,82.3,71.5,59.7,71.0,65.1,57.0,94,81,61,30.16,30.09,3,0,0,0.00
2014-7-22,85.6,75.6,66.2,74.0,68.9,64.0,95,80,59,30.14,29.95,6,0,0,0.00
2014-7-23,85.4,74.0,63.0,75.0,69.5,62.0,97,86,69,29.95,29.77,12,3,0,0.38
2014-7-24,69.7,63.0,55.3,62.0,57.0,53.0,96,82,63,30.00,29.87,10,2,0,0.00
2014-7-25,74.9,62.5,50.9,63.0,56.9,50.0,98,84,57,30.04,29.95,11,1,0,0.00
2014-7-26,76.6,67.5,58.0,65.0,59.2,55.0,93,76,56,29.95,29.82,6,1,0,0.00
2014-7-27,79.1,70.8,63.4,72.0,65.1,60.0,97,82,70,29.81,29.64,9,2,0,0.36
2014-7-28,68.6,62.7,56.9,67.0,61.7,56.0,98,96,87,29.76,29.48,10,1,0,0.87
2014-7-29,69.7,60.1,52.1,58.0,54.9,51.0,97,84,59,29.99,29.75,7,2,0,0.00
2014-7-30,73.3,60.7,48.4,60.0,54.7,48.0,99,82,57,30.03,29.96,7,1,0,0.13
2014-7-31,70.5,61.4,54.0,64.0,58.7,53.0,98,91,73,30.12,29.98,7,1,0,0.38
2014-8-1,81.6,70.0,58.8,69.0,62.5,57.0,96,79,52,30.16,30.10,8,1,0,0.00
2014-8-2,80.0,70.3,61.0,70.0,65.1,60.0,98,84,67,30.16,30.06,4,0,0,0.00
2014-8-3,78.2,67.5,59.7,70.0,64.2,59.0,98,89,70,30.11,30.01,7,0,0,1.78
2014-8-4,78.0,68.3,62.0,69.0,64.7,61.0,99,89,64,30.09,30.03,7,1,0,0.03
2014-8-5,78.5,68.5,60.4,71.0,64.5,60.0,98,87,74,30.05,29.96,8,1,0,0.02
2014-8-6,75.7,66.4,57.9,64.0,60.6,55.0,97,83,55,29.96,29.89,10,1,0,0.00
2014-8-7,70.2,61.7,57.0,62.0,58.5,54.0,97,89,70,30.04,29.92,5,0,0,0.43
2014-8-8,74.7,63.9,53.0,65.0,58.9,53.0,99,85,63,30.13,30.04,10,2,0,0.00
2014-8-9,78.5,65.2,53.8,63.0,58.7,53.0,99,82,53,30.17,30.11,6,0,0,0.00
2014-8-10,82.3,66.8,53.9,68.0,59.5,53.0,99,81,38,30.18,30.11,2,0,0,0.00
2014-8-11,83.2,71.0,57.9,69.0,61.9,56.0,95,75,46,30.13,30.02,6,1,0,0.00
2014-8-12,69.2,64.2,59.5,68.0,61.5,56.0,97,91,71,30.03,29.83,9,2,0,0.22
2014-8-13,72.5,66.1,59.5,69.0,63.0,54.0,98,90,75,29.82,29.71,12,2,0,0.66
2014-8-14,65.9,58.1,53.9,55.0,53.1,51.0,93,83,67,29.89,29.78,14,2,0,0.01
2014-8-15,61.2,55.8,52.4,57.0,52.9,49.0,97,90,82,29.92,29.83,11,2,0,0.11
2014-8-16,69.8,61.1,52.5,59.0,54.9,50.0,92,81,63,29.93,29.83,5,0,0,0.11
2014-8-17,69.2,62.3,55.9,62.0,58.7,54.0,97,88,71,29.94,29.80,9,2,0,0.02
2014-8-18,69.9,60.8,50.9,59.0,55.9,50.0,97,85,63,29.95,29.87,9,1,0,0.03
2014-8-19,76.2,62.3,46.5,64.0,56.0,46.0,99,81,61,29.93,29.86,7,1,0,0.00
2014-8-20,80.7,68.9,60.5,71.0,63.6,55.0,98,83,66,29.99,29.89,9,1,0,0.35
2014-8-21,74.0,68.9,65.5,72.0,67.6,65.0,98,95,87,30.00,29.94,6,1,0,0.26
2014-8-22,68.9,64.9,61.5,68.0,64.0,60.0,99,96,94,30.06,29.96,11,2,13,0.00
2014-8-23,70.3,63.5,58.7,64.0,61.2,58.0,98,92,81,30.16,30.06,5,1,0,0.03
2014-8-24,81.0,65.0,52.9,66.0,59.4,53.0,100,84,50,30.20,30.13,3,0,0,0.00
2014-8-25,80.9,67.2,55.3,69.0,61.5,55.0,100,84,52,30.21,30.14,4,0,0,0.00
2014-8-26,82.6,70.1,57.7,66.0,60.7,56.0,97,75,44,30.17,30.01,10,1,0,0.00
2014-8-27,76.3,70.1,59.0,70.0,64.2,57.0,95,82,61,30.01,29.94,7,2,0,0.00
2014-8-28,68.3,61.5,55.5,61.0,57.0,52.0,96,86,64,30.10,29.91,10,2,0,0.00
2014-8-29,72.8,59.5,46.9,61.0,54.3,46.0,99,84,57,30.21,30.10,3,0,0,0.00
2014-8-30,76.6,66.5,51.6,67.0,60.7,51.0,98,82,66,30.19,30.03,12,3,0,0.00
2014-8-31,74.0,71.2,69.0,72.0,68.8,65.0,97,92,84,30.02,29.92,13,1,6,0.25
2014-9-1,82.8,74.0,67.9,73.0,69.1,67.0,96,85,65,30.00,29.88,5,0,0,0.00
2014-9-2,84.7,74.0,63.8,73.0,69.4,63.0,98,86,64,29.89,29.74,6,1,0,1.14
2014-9-3,75.2,66.4,59.3,65.0,61.9,58.0,98,86,61,30.11,29.85,13,3,0,0.00
2014-9-4,82.0,70.1,56.8,71.0,63.2,56.0,97,80,56,30.15,30.06,7,1,0,0.00
2014-9-5,85.8,76.9,69.2,73.0,67.9,65.0,91,75,54,30.12,29.91,6,1,0,0.00
2014-9-6,78.3,68.5,61.6,70.0,64.8,60.0,96,88,72,29.98,29.85,11,2,0,0.10
2014-9-7,70.9,60.7,49.8,60.0,54.6,48.0,97,82,50,30.24,29.98,10,2,0,0.01
2014-9-8,73.5,60.7,47.2,62.0,54.3,46.0,98,81,58,30.33,30.24,7,1,0,0.00
2014-9-9,70.5,61.4,52.1,60.0,55.8,51.0,97,83,65,30.29,30.10,6,1,0,0.00
2014-9-10,74.9,65.5,57.4,65.0,60.0,55.0,93,83,66,30.11,29.84,7,1,0,0.00
2014-9-11,72.5,63.9,53.5,68.0,60.2,52.0,95,87,79,30.05,29.66,15,4,0,0.08
2014-9-12,58.0,50.7,41.8,52.0,46.9,41.0,97,87,70,30.25,30.05,10,1,0,0.02
2014-9-13,58.4,49.0,41.2,57.0,47.4,40.0,98,94,88,30.26,30.05,17,3,0,0.26
2014-9-14,59.4,49.4,41.4,48.0,44.6,40.0,95,84,60,30.32,30.23,5,0,0,0.00
2014-9-15,66.1,53.0,37.5,53.0,45.2,37.0,98,78,48,30.25,29.99,6,0,0,0.00
2014-9-16,63.2,54.4,47.6,57.0,51.4,46.0,98,90,65,30.03,29.96,9,1,0,0.31
2014-9-17,65.0,53.2,44.6,52.0,47.7,43.0,97,83,55,30.04,29.95,6,0,0,0.00
2014-9-18,62.6,52.7,41.3,57.0,48.9,38.0,98,87,76,30.20,29.94,6,0,0,0.00
2014-9-19,58.4,46.0,32.2,45.0,39.5,31.0,100,80,57,30.37,30.20,9,1,0,0.00
2014-9-20,69.8,61.5,48.5,61.0,56.1,45.0,89,82,73,30.23,29.93,22,4,0,0.00
2014-9-21,79.3,66.4,57.5,67.0,60.2,54.0,93,81,59,29.93,29.52,11,3,0,0.13
2014-9-22,60.2,50.9,47.8,57.0,47.7,44.0,97,88,78,30.17,29.59,13,4,0,0.09
2014-9-23,66.1,58.3,48.3,56.0,52.5,44.0,96,82,64,30.41,30.18,10,1,0,0.00
2014-9-24,71.2,58.6,46.4,60.0,52.8,46.0,98,82,60,30.55,30.41,6,1,0,0.00
2014-9-25,65.9,55.9,48.3,58.0,51.7,48.0,97,87,67,30.47,30.27,4,0,0,0.00
2014-9-26,73.3,58.5,45.9,62.0,54.1,45.0,99,86,63,30.31,30.21,6,1,0,0.00
2014-9-27,76.0,60.6,48.7,63.0,56.0,48.0,99,86,61,30.27,30.20,5,0,0,0.00
2014-9-28,75.8,60.3,49.9,64.0,55.5,49.0,99,86,55,30.20,30.03,4,0,0,0.00
2014-9-29,76.1,61.2,50.2,66.0,57.6,50.0,99,89,50,30.03,29.89,2,0,0,0.01
2014-9-30,69.7,61.5,55.8,64.0,58.9,55.0,98,91,79,29.98,29.87,10,1,0,0.00
2014-10-1,66.2,59.6,52.6,60.0,56.7,51.0,98,90,78,30.11,29.98,7,1,0,0.00
2014-10-2,71.0,60.9,55.8,61.0,57.3,54.0,97,88,71,30.15,30.06,6,1,0,0.00
2014-10-3,69.6,61.4,54.1,58.0,55.3,52.0,96,81,63,30.06,29.70,11,2,0,0.01
2014-10-4,57.9,52.5,43.5,57.0,51.3,42.0,98,95,87,29.70,29.53,7,1,0,0.65
2014-10-5,54.1,44.8,36.5,44.0,39.0,33.0,94,81,62,29.91,29.68,9,1,0,0.00
2014-10-6,64.3,53.6,38.0,49.0,41.5,35.0,94,65,49,29.93,29.85,13,4,0,0.00
2014-10-7,67.0,60.6,52.3,53.0,49.6,46.0,85,68,48,29.91,29.75,10,2,0,0.00
2014-10-8,61.6,55.7,48.9,56.0,47.9,34.0,94,76,55,29.88,29.60,11,3,0,0.23
2014-10-9,57.3,49.5,43.1,43.0,39.6,36.0,84,69,51,30.03,29.84,15,4,0,0.00
2014-10-10,54.9,46.5,39.7,47.0,41.5,39.0,96,83,68,30.14,30.02,11,1,0,0.00
2014-10-11,56.8,45.2,37.6,46.0,40.6,36.0,98,85,61,30.19,30.08,9,0,0,0.00
2014-10-12,59.3,44.4,33.1,44.0,38.4,32.0,98,82,47,30.31,30.19,3,0,0,0.00
2014-10-13,62.6,53.6,35.4,57.0,48.8,34.0,96,84,76,30.25,30.12,13,2,0,0.00
2014-10-14,76.8,68.3,60.2,64.0,60.9,57.0,92,78,61,30.13,29.96,16,3,0,0.00
2014-10-15,74.7,65.9,63.0,66.0,62.9,61.0,99,90,72,29.96,29.79,6,1,0,2.38
2014-10-16,73.2,64.6,55.8,66.0,61.4,51.0,99,91,49,29.77,29.56,8,2,0,0.83
2014-10-17,65.7,58.4,51.9,55.0,51.9,50.0,97,80,61,29.64,29.55,11,1,0,0.00
2014-10-18,60.4,53.0,44.0,53.0,49.6,42.0,96,88,70,29.76,29.49,10,2,0,0.36
2014-10-19,43.3,38.9,35.0,42.0,34.9,31.0,95,86,72,30.06,29.77,12,2,0,0.02
2014-10-20,53.2,45.1,35.2,44.0,37.3,32.0,90,75,57,30.04,29.87,9,1,0,0.00
2014-10-21,51.1,47.7,44.6,49.0,45.7,41.0,97,93,69,30.02,29.84,7,1,0,0.09
2014-10-22,52.4,48.3,45.6,49.0,46.5,43.0,97,94,88,30.11,30.01,0,0,0,0.01
2014-10-23,47.2,44.6,43.4,45.0,42.5,41.0,98,92,85,30.00,29.87,6,1,0,0.24
2014-10-24,59.4,47.7,40.5,49.0,43.8,38.0,97,87,64,29.91,29.82,13,3,0,0.02
2014-10-25,62.3,51.5,42.3,52.0,46.1,39.0,94,83,61,29.88,29.50,9,2,0,0.07
2014-10-26,49.3,45.9,42.6,48.0,43.4,41.0,96,91,78,29.80,29.50,15,7,0,0.16
2014-10-27,53.0,46.1,39.5,45.0,42.2,38.0,96,87,68,30.03,29.80,11,3,0,0.00
2014-10-28,74.9,59.5,44.5,58.0,49.3,40.0,91,70,48,29.96,29.76,10,1,0,0.00
2014-10-29,60.2,52.2,46.1,59.0,47.3,38.0,97,83,70,29.92,29.79,9,2,0,0.00
2014-10-30,45.9,42.3,36.3,43.0,40.2,35.0,96,92,84,30.05,29.91,12,2,0,0.11
2014-10-31,48.3,39.0,30.5,42.0,35.3,30.0,98,87,61,30.04,29.95,4,0,0,0.01
2014-11-1,45.1,38.8,32.9,38.0,34.2,31.0,96,84,65,30.02,29.93,5,0,0,0.00
2014-11-2,43.5,36.0,31.8,33.0,27.2,22.0,91,72,46,30.10,30.00,12,2,0,0.03
2014-11-3,52.2,44.3,34.3,41.0,33.6,26.0,86,68,38,30.13,30.05,13,2,0,0.00
2014-11-4,63.9,56.6,47.4,41.0,32.4,26.0,57,41,27,30.06,29.85,13,2,0,0.00
2014-11-5,60.6,48.6,35.5,49.0,38.4,27.0,95,71,28,30.11,29.83,19,4,0,0.02
2014-11-6,45.4,40.7,36.0,41.0,38.7,35.0,100,92,80,30.09,29.59,12,1,0,0.21
2014-11-7,39.0,36.0,32.0,38.0,34.3,28.0,97,93,85,29.89,29.60,11,2,0,0.12
2014-11-8,43.2,37.3,31.8,32.0,29.3,27.0,89,74,59,29.92,29.73,7,2,0,0.01
2014-11-9,45.8,41.0,33.2,38.0,33.5,30.0,94,75,60,29.90,29.73,11,2,0,0.00
2014-11-10,54.9,46.2,38.3,38.0,34.9,32.0,89,65,49,30.06,29.90,10,1,0,0.00
2014-11-11,62.7,51.5,36.2,52.0,42.9,33.0,92,74,54,29.97,29.76,14,3,0,0.00
2014-11-12,57.4,45.6,35.1,53.0,40.0,27.0,96,81,68,30.09,29.72,14,4,0,0.12
2014-11-13,38.9,33.8,29.7,30.0,27.9,26.0,96,80,62,30.08,29.95,10,2,0,0.00
2014-11-14,31.7,28.5,25.9,29.0,26.6,24.0,96,92,85,30.14,29.95,11,5,0,0.03
2014-11-15,31.8,26.8,20.7,27.0,23.3,19.0,95,87,71,30.30,30.14,8,1,0,0.06
2014-11-16,37.1,33.8,29.3,29.0,24.8,22.0,76,70,59,30.25,29.95,10,2,0,0.00
2014-11-17,37.7,34.0,31.8,37.0,32.2,27.0,98,93,69,29.95,29.43,12,2,0,0.74
2014-11-18,31.6,22.3,18.9,28.0,14.5,8.0,91,73,58,29.88,29.54,17,9,0,0.00
2014-11-19,27.4,22.3,16.7,19.0,11.7,8.0,83,65,48,30.13,29.83,15,5,0,0.00
2014-11-20,32.0,26.4,21.9,24.0,19.5,15.0,88,75,60,29.91,29.75,15,6,0,0.00
2014-11-21,24.3,21.2,18.3,21.0,16.9,14.0,93,83,74,30.41,29.91,13,4,0,0.00
2014-11-22,39.5,30.0,17.9,37.0,21.9,12.0,91,73,39,30.39,29.98,9,2,0,0.24
2014-11-23,51.7,45.7,39.6,42.0,39.7,37.0,93,80,69,30.04,29.81,7,2,0,0.07
2014-11-24,68.3,56.7,39.5,58.0,49.6,37.0,98,78,62,29.80,29.31,17,5,0,0.25
2014-11-25,50.4,41.1,32.6,45.0,32.0,28.0,97,72,49,30.16,29.59,15,3,0,0.00
2014-11-26,34.9,31.6,27.5,30.0,28.5,27.0,96,88,77,30.19,29.90,5,0,0,0.00
2014-11-27,28.4,26.9,25.8,27.0,25.7,25.0,96,95,94,30.02,29.91,0,0,0,0.01
2014-11-28,26.2,23.3,20.7,25.0,19.9,14.0,95,87,76,30.20,30.00,19,3,0,0.00
2014-11-29,33.3,24.9,13.1,26.0,18.6,11.0,91,77,65,30.23,29.99,8,1,0,0.00
2014-11-30,52.4,42.5,33.5,46.0,35.7,26.0,79,77,74,30.00,29.84,17,6,0,0.01
2014-12-1,53.3,39.2,27.9,48.0,34.3,19.0,95,83,69,30.52,29.84,15,6,0,0.02
2014-12-2,30.5,24.8,14.5,29.0,19.8,12.0,95,82,68,30.64,30.16,19,4,0,0.00
2014-12-3,42.7,37.3,30.7,40.0,34.6,27.0,97,90,77,30.16,29.84,16,4,0,0.15
2014-12-4,33.1,28.7,19.0,27.0,23.6,17.0,93,81,68,30.50,30.10,18,6,0,0.00
2014-12-5,31.4,25.5,18.4,30.0,22.1,17.0,95,87,79,30.53,30.28,12,4,0,0.00
2014-12-6,34.2,32.7,28.7,34.0,32.0,27.0,98,97,92,30.38,30.15,5,0,0,0.06
2014-12-7,29.4,23.6,15.7,27.0,18.3,13.0,92,81,58,30.69,30.38,6,0,0,0.01
2014-12-8,24.2,19.8,13.7,21.0,13.6,6.0,89,77,58,30.65,30.33,16,5,0,0.00
2014-12-9,33.9,30.5,23.4,33.0,29.2,20.0,98,95,87,30.33,29.82,10,2,0,0.25
2014-12-10,32.3,27.8,25.3,32.0,26.8,24.0,98,95,92,29.82,29.56,15,5,0,0.00
2014-12-11,27.3,25.5,24.4,27.0,24.6,23.0,97,96,95,29.83,29.55,14,7,0,0.00
2014-12-12,27.6,25.6,23.2,27.0,24.7,22.0,97,96,95,30.01,29.83,13,5,0,0.00
2014-12-13,32.8,28.9,26.1,33.0,28.3,25.0,99,97,96,30.00,29.87,11,5,0,0.00
2014-12-14,34.4,33.2,32.2,34.0,33.1,32.0,99,99,99,29.99,29.85,15,4,0,0.05
2014-12-15,33.9,32.4,30.8,33.0,31.9,31.0,99,98,95,30.07,29.98,5,0,0,0.05
2014-12-16,36.6,33.2,30.8,36.0,32.5,30.0,98,97,95,30.02,29.79,7,2,0,0.19
2014-12-17,41.3,36.0,31.2,40.0,35.1,30.0,99,96,92,29.84,29.75,16,6,0,0.21
2014-12-18,31.1,29.7,27.7,30.0,28.4,27.0,97,95,91,29.96,29.82,19,9,0,0.00
2014-12-19,27.8,24.3,21.0,27.0,22.7,19.0,97,93,88,30.22,29.94,10,3,0,0.00
2014-12-20,26.5,22.3,16.7,22.0,19.8,15.0,95,90,82,30.29,30.20,4,0,0,0.00
2014-12-21,31.7,27.3,23.5,26.0,23.9,22.0,100,87,75,30.32,30.26,0,0,0,0.04
2014-12-22,33.4,30.6,27.5,32.0,28.1,24.0,95,90,86,30.30,30.12,10,3,0,0.01
2014-12-23,37.7,35.8,33.3,37.0,35.2,32.0,98,97,94,30.12,29.98,14,5,0,0.23
2014-12-24,53.0,41.5,37.4,53.0,41.1,37.0,99,98,97,29.97,29.31,14,4,0,0.39
2014-12-25,57.3,43.2,37.4,55.0,38.0,31.0,96,82,70,30.04,29.26,23,9,0,0.14
2014-12-26,41.9,37.0,29.3,34.0,31.6,28.0,95,81,71,30.20,30.04,15,4,0,0.00
2014-12-27,49.8,43.6,35.1,40.0,35.9,30.0,86,74,66,30.16,29.83,15,2,0,0.00
2014-12-28,48.8,37.6,32.5,42.0,34.2,27.0,96,87,70,30.02,29.75,17,5,0,0.38
2014-12-29,33.0,27.4,16.9,28.0,21.6,12.0,89,79,68,30.26,30.02,11,3,0,0.00
2014-12-30,23.0,18.7,12.5,17.0,11.4,8.0,85,74,59,30.43,30.25,9,1,0,0.00
2014-12-31,21.6,18.9,14.4,15.0,10.1,7.0,89,69,53,30.28,29.97,13,6,0,0.00
2015-1-1,30.5,24.1,18.7,18.0,13.0,8.0,86,64,45,29.98,29.79,14,4,0,0.00
2015-1-2,30.3,25.5,19.3,25.0,21.8,17.0,93,86,63,30.43,29.88,19,5,0,0.00